Caldwell, ID

2:26 AM MST on January 21, 2018 (GMT -0700)
Caldwell Industrial

Weather History for KEUL - February, 2013

Change the Weather History Date:

Thursday, February 14, 2013

  Actual Average (KBOI) Record (KBOI)
Temperature  
Mean Temperature 40 °F -  
Max Temperature 50 °F 44 °F 65 °F (1876)
Min Temperature 30 °F 29 °F -6 °F (1884)
Degree Days  
Heating Degree Days 25    
Moisture  
Dew Point 26 °F    
Average Humidity 60    
Maximum Humidity 80    
Minimum Humidity 40    
Precipitation  
Precipitation 0.00 in - - ()
Sea Level Pressure  
Sea Level Pressure 30.43 in    
Wind  
Wind Speed 8 mph (NW)    
Max Wind Speed 14 mph    
Max Gust Speed 20 mph    
Visibility 10 miles    
Events      
Averages and records for this station are not official NWS values.
T = Trace of Precipitation, MM = Missing Value Source: NWS Daily Summary

Daily Weather History Graph

Daily Weather History Graph

Search for Another Location

Airport or City:

Trip Planner

Search our weather history database for the weather conditions in past years. The results will help you decide how hot, cold, wet, or windy it might be!

Date:

Astronomy

Feb. 14, 2013 Rise Set
Actual Time 7:46 AM MST 6:16 PM MST
Civil Twilight 7:16 AM MST 6:45 PM MST
Nautical Twilight 6:42 AM MST 7:19 PM MST
Astronomical Twilight 6:09 AM MST 7:52 PM MST
Moon 9:39 AM MST (2/14) 11:35 PM MST (2/14)
Length of Visible Light 11h 28m
Length of Day
10h 29m
Waxing Crescent, 22% of the Moon is Illuminated
Feb 14
Waxing Crescent
Feb 17
First Quarter
Feb 25
Full
Mar 4
Last Quarter
Mar 11
New

Hourly Weather History & Observations

Time (MST) Temp. Windchill Dew Point Humidity Pressure Visibility Wind Dir Wind Speed Gust Speed Precip Events Conditions
12:15 AM 39.2 °F 32.5 °F 26.6 °F 61% 30.33 in 10.0 mi WNW 10.4 mph - N/A   Overcast
12:35 AM 37.4 °F 29.8 °F 24.8 °F 60% 30.33 in 10.0 mi WNW 11.5 mph - N/A   Scattered Clouds
12:55 AM 37.4 °F 30.3 °F 24.8 °F 60% 30.34 in 10.0 mi WNW 10.4 mph - N/A   Clear
1:15 AM 37.4 °F 30.8 °F 24.8 °F 60% 30.34 in 10.0 mi WNW 9.2 mph - N/A   Clear
1:35 AM 35.6 °F 28.6 °F 24.8 °F 65% 30.34 in 10.0 mi WNW 9.2 mph - N/A   Clear
1:55 AM 35.6 °F 28.0 °F 24.8 °F 65% 30.34 in 10.0 mi WNW 10.4 mph - N/A   Clear
2:15 AM 35.6 °F 30.7 °F 24.8 °F 65% 30.36 in 10.0 mi NNE 5.8 mph - N/A   Clear
2:35 AM 33.8 °F 27.7 °F 24.8 °F 70% 30.36 in 10.0 mi NNW 6.9 mph - N/A   Clear
2:55 AM 33.8 °F 27.0 °F 24.8 °F 70% 30.37 in 10.0 mi WNW 8.1 mph - N/A   Clear
3:15 AM 33.8 °F 30.8 °F 24.8 °F 70% 30.37 in 10.0 mi NNW 3.5 mph - N/A   Clear
3:35 AM 33.8 °F 29.6 °F 24.8 °F 70% 30.37 in 10.0 mi NW 4.6 mph - N/A   Clear
3:55 AM 33.8 °F 30.8 °F 24.8 °F 70% 30.37 in 10.0 mi NNW 3.5 mph - N/A   Clear
4:15 AM 32.0 °F 28.7 °F 24.8 °F 75% 30.38 in 10.0 mi North 3.5 mph - N/A   Clear
4:35 AM 33.8 °F 29.6 °F 24.8 °F 70% 30.38 in 10.0 mi WNW 4.6 mph - N/A   Clear
4:55 AM 32.0 °F 26.4 °F 23.0 °F 69% 30.38 in 10.0 mi West 5.8 mph - N/A   Clear
5:35 AM 32.0 °F 24.8 °F 24.8 °F 75% 30.40 in 10.0 mi NW 8.1 mph - N/A   Clear
5:55 AM 30.2 °F 24.3 °F 23.0 °F 75% 30.41 in 10.0 mi NW 5.8 mph - N/A   Clear
6:15 AM 30.2 °F 23.4 °F 23.0 °F 75% 30.41 in 10.0 mi NW 6.9 mph - N/A   Clear
6:35 AM 30.2 °F 22.6 °F 23.0 °F 75% 30.41 in 10.0 mi NNW 8.1 mph - N/A   Clear
6:55 AM 30.2 °F 22.6 °F 23.0 °F 75% 30.42 in 10.0 mi WNW 8.1 mph - N/A   Clear
7:15 AM 30.2 °F 22.6 °F 23.0 °F 75% 30.42 in 10.0 mi West 8.1 mph - N/A   Clear
7:35 AM 30.2 °F 22.6 °F 23.0 °F 75% 30.42 in 10.0 mi NW 8.1 mph - N/A   Clear
7:55 AM 30.2 °F 24.3 °F 23.0 °F 75% 30.43 in 10.0 mi WNW 5.8 mph - N/A   Clear
8:15 AM 32.0 °F 28.7 °F 23.0 °F 69% 30.44 in 10.0 mi WSW 3.5 mph - N/A   Clear
8:35 AM 30.2 °F 25.4 °F 24.8 °F 80% 30.45 in 10.0 mi WNW 4.6 mph - N/A   Clear
8:55 AM 33.8 °F 27.0 °F 26.6 °F 75% 30.46 in 10.0 mi WNW 8.1 mph - N/A   Clear
9:15 AM 35.6 °F 28.6 °F 26.6 °F 70% 30.45 in 10.0 mi WNW 9.2 mph - N/A   Clear
9:35 AM 37.4 °F 31.4 °F 26.6 °F 65% 30.46 in 10.0 mi WNW 8.1 mph - N/A   Clear
9:55 AM 39.2 °F 32.5 °F 26.6 °F 61% 30.46 in 10.0 mi WNW 10.4 mph - N/A   Clear
10:15 AM 41.0 °F 35.2 °F 26.6 °F 57% 30.46 in 10.0 mi WNW 9.2 mph - N/A   Clear
10:35 AM 42.8 °F 37.0 °F 26.6 °F 53% 30.47 in 10.0 mi WNW 10.4 mph - N/A   Clear
10:55 AM 42.8 °F 36.6 °F 26.6 °F 53% 30.48 in 10.0 mi NW 11.5 mph - N/A   Clear
11:15 AM 42.8 °F 37.0 °F 28.4 °F 57% 30.48 in 10.0 mi WNW 10.4 mph - N/A   Clear
11:35 AM 44.6 °F 39.2 °F 28.4 °F 53% 30.48 in 10.0 mi NW 10.4 mph - N/A   Clear
11:55 AM 44.6 °F 38.8 °F 28.4 °F 53% 30.48 in 10.0 mi NNW 11.5 mph - N/A   Clear
12:15 PM 44.6 °F 39.2 °F 28.4 °F 53% 30.48 in 10.0 mi NW 10.4 mph - N/A   Clear
12:35 PM 46.4 °F 41.5 °F 28.4 °F 50% 30.47 in 10.0 mi NW 10.4 mph - N/A   Clear
12:55 PM 46.4 °F 41.9 °F 26.6 °F 46% 30.47 in 10.0 mi NW 9.2 mph - N/A   Clear
1:15 PM 46.4 °F 41.1 °F 28.4 °F 50% 30.46 in 10.0 mi WNW 11.5 mph - N/A   Clear
1:35 PM 46.4 °F 41.5 °F 28.4 °F 50% 30.46 in 10.0 mi NNW 10.4 mph - N/A   Clear
1:55 PM 48.2 °F - 28.4 °F 46% 30.46 in 10.0 mi NNW 11.5 mph 18.4 mph N/A   Clear
2:15 PM 48.2 °F - 28.4 °F 46% 30.45 in 10.0 mi NNW 11.5 mph - N/A   Clear
2:35 PM 48.2 °F - 28.4 °F 46% 30.44 in 10.0 mi NW 9.2 mph - N/A   Clear
2:55 PM 50.0 °F - 26.6 °F 40% 30.44 in 10.0 mi NNW 12.7 mph - N/A   Clear
3:15 PM 48.2 °F - 26.6 °F 43% 30.44 in 10.0 mi NW 10.4 mph 19.6 mph N/A   Clear
3:35 PM 50.0 °F - 28.4 °F 43% 30.43 in 10.0 mi NNW 12.7 mph 18.4 mph N/A   Clear
3:55 PM 50.0 °F - 28.4 °F 43% 30.43 in 10.0 mi NNW 12.7 mph - N/A   Clear
4:15 PM 50.0 °F - 28.4 °F 43% 30.43 in 10.0 mi North 10.4 mph - N/A   Clear
4:35 PM 50.0 °F - 28.4 °F 43% 30.43 in 10.0 mi North 13.8 mph - N/A   Partly Cloudy
5:15 PM 46.4 °F 42.4 °F 26.6 °F 46% 30.43 in 10.0 mi North 8.1 mph - N/A   Partly Cloudy
5:35 PM 44.6 °F 39.7 °F 28.4 °F 53% 30.43 in 10.0 mi North 9.2 mph - N/A   Mostly Cloudy
5:55 PM 44.6 °F 39.7 °F 26.6 °F 49% 30.43 in 10.0 mi NNE 9.2 mph - N/A   Partly Cloudy
6:15 PM 42.8 °F 38.0 °F 26.6 °F 53% 30.43 in 10.0 mi NNE 8.1 mph - N/A   Clear
6:35 PM 41.0 °F 36.4 °F 26.6 °F 57% 30.43 in 10.0 mi NNE 6.9 mph - N/A   Scattered Clouds
6:55 PM 39.2 °F 35.9 °F 26.6 °F 61% 30.43 in 10.0 mi NNE 4.6 mph - N/A   Scattered Clouds
7:15 PM 37.4 °F 32.1 °F 24.8 °F 60% 30.43 in 10.0 mi NNE 6.9 mph - N/A   Partly Cloudy
7:35 PM 37.4 °F 32.8 °F 24.8 °F 60% 30.43 in 10.0 mi NE 5.8 mph - N/A   Clear
7:55 PM 37.4 °F 32.8 °F 24.8 °F 60% 30.44 in 10.0 mi SSW 5.8 mph - N/A   Clear
8:15 PM 39.2 °F - 24.8 °F 56% 30.44 in 10.0 mi Calm Calm - N/A   Clear
8:35 PM 41.0 °F - 24.8 °F 53% 30.45 in 10.0 mi Calm Calm - N/A   Clear
8:55 PM 39.2 °F - 24.8 °F 56% 30.45 in 10.0 mi Calm Calm - N/A   Mostly Cloudy
9:15 PM 39.2 °F - 24.8 °F 56% 30.45 in 10.0 mi Calm Calm - N/A   Overcast
9:35 PM 39.2 °F - 24.8 °F 56% 30.45 in 10.0 mi Calm Calm - N/A   Overcast
9:55 PM 37.4 °F - 26.6 °F 65% 30.46 in 10.0 mi Calm Calm - N/A   Overcast
10:15 PM 39.2 °F - 26.6 °F 61% 30.46 in 10.0 mi Calm Calm - N/A   Overcast
10:35 PM 39.2 °F 35.9 °F 26.6 °F 61% 30.47 in 10.0 mi West 4.6 mph - N/A   Overcast
10:55 PM 39.2 °F 35.0 °F 26.6 °F 61% 30.47 in 10.0 mi West 5.8 mph - N/A   Overcast
11:15 PM 39.2 °F 34.2 °F 26.6 °F 61% 30.48 in 10.0 mi WNW 6.9 mph - N/A   Overcast
11:35 PM 39.2 °F 35.9 °F 26.6 °F 61% 30.49 in 10.0 mi WNW 4.6 mph - N/A   Overcast
11:55 PM 39.2 °F 35.0 °F 26.6 °F 61% 30.49 in 10.0 mi West 5.8 mph - N/A   Overcast